Tallulah, LA

8:32 AM CDT on August 29, 2016 (GMT -0500)
Vicksburg Tallulah Regional

Weather History for KTVR - February, 2013

Change the Weather History Date:

Tuesday, February 5, 2013

  Actual Average Record
Temperature  
Mean Temperature 54 °F 48 °F  
Max Temperature 62 °F 58 °F 82 °F (2008)
Min Temperature 46 °F 37 °F 12 °F (1996)
Degree Days  
Heating Degree Days 11 18  
Month to date heating degree days 73 90  
Since 1 July heating degree days 1460 1634  
Cooling Degree Days 0 0  
Month to date cooling degree days 0 0  
Year to date cooling degree days 18 3  
Growing Degree Days 4 (Base 50)    
Moisture  
Dew Point 52 °F    
Average Humidity 89    
Maximum Humidity 100    
Minimum Humidity 77    
Precipitation  
Precipitation 0.00 in 0.17 in 2.59 in (2004)
Month to date precipitation T 0.85  
Year to date precipitation 13.28 5.92  
Sea Level Pressure  
Sea Level Pressure 30.02 in    
Wind  
Wind Speed 2 mph (ESE)    
Max Wind Speed 5 mph    
Max Gust Speed 7 mph    
Visibility 5 miles    
Events Fog , Rain    
T = Trace of Precipitation, MM = Missing Value Source: NWS Daily Summary

Daily Weather History Graph

Daily Weather History Graph

Search for Another Location

Airport or City:

Trip Planner

Search our weather history database for the weather conditions in past years. The results will help you decide how hot, cold, wet, or windy it might be!

Date:

Astronomy

Feb. 05, 2013 Rise Set
Actual Time 6:55 AM CST 5:41 PM CST
Civil Twilight 6:29 AM CST 6:07 PM CST
Nautical Twilight 6:00 AM CST 6:36 PM CST
Astronomical Twilight 5:31 AM CST 7:04 PM CST
Moon 2:31 AM CST (2/5) 1:05 PM CST (2/5)
Length of Visible Light 11h 37m
Length of Day
10h 46m
Waning Crescent, 26% of the Moon is Illuminated
Feb 5
Waning Crescent
Feb 10
New
Feb 17
First Quarter
Feb 25
Full
Mar 4
Last Quarter

Hourly Weather History & Observations

Time (CST) Temp. Dew Point Humidity Pressure Visibility Wind Dir Wind Speed Gust Speed Precip Events Conditions
12:53 AM 52.0 °F 45.0 °F 77% 29.97 in 10.0 mi South 5.8 mph - N/A   Overcast
1:53 AM 48.9 °F 45.0 °F 86% 29.96 in 10.0 mi SSE 5.8 mph - N/A   Clear
2:53 AM 46.9 °F 44.1 °F 90% 29.96 in 10.0 mi Calm Calm - N/A   Mostly Cloudy
3:53 AM 50.0 °F 46.9 °F 89% 29.96 in 10.0 mi South 5.8 mph - N/A   Overcast
4:21 AM 51.8 °F 50.0 °F 94% 29.94 in 4.0 mi South 8.1 mph - N/A   Overcast
4:24 AM 51.8 °F 50.0 °F 94% 29.94 in 2.0 mi South 8.1 mph - N/A   Overcast
4:29 AM 51.8 °F 51.8 °F 100% 29.95 in 0.8 mi South 5.8 mph - N/A   Overcast
4:53 AM 51.1 °F 51.1 °F 100% 29.97 in 0.5 mi South 4.6 mph - N/A Fog Fog
5:53 AM 51.1 °F 51.1 °F 100% 29.99 in 0.2 mi Calm Calm - N/A Fog Fog
6:53 AM 51.1 °F 51.1 °F 100% 30.01 in 0.2 mi Calm Calm - N/A Fog Fog
7:53 AM 52.0 °F 51.1 °F 97% 30.04 in 1.0 mi Calm Calm - 0.00 in   Overcast
8:03 AM 51.8 °F 51.8 °F 100% 30.02 in 1.8 mi North 3.5 mph - N/A   Overcast
8:14 AM 51.8 °F 51.8 °F 100% 30.02 in 2.0 mi Calm Calm - N/A   Overcast
8:28 AM 51.8 °F 51.8 °F 100% 30.03 in 3.0 mi Calm Calm - 0.00 in Rain Light Rain
8:36 AM 51.8 °F 51.8 °F 100% 30.03 in 2.0 mi NE 3.5 mph - 0.01 in Rain Rain
8:45 AM 51.8 °F 51.8 °F 100% 30.03 in 1.5 mi Calm Calm - 0.02 in Rain Rain
8:53 AM 52.0 °F 51.1 °F 97% 30.05 in 1.2 mi Calm Calm - 0.05 in Rain Heavy Rain
9:17 AM 51.8 °F 51.8 °F 100% 30.03 in 2.0 mi East 3.5 mph - 0.00 in   Overcast
12:53 PM - - N/A% 30.03 in - North - - N/A   Unknown
1:53 PM - - N/A% 30.03 in - North - - N/A   Unknown
2:53 PM - - N/A% 30.01 in - North - - N/A   Unknown
3:53 PM 61.0 °F 55.0 °F 81% 30.03 in 9.0 mi Calm Calm - N/A   Unknown
4:06 PM 60.8 °F 55.4 °F 82% 30.01 in 10.0 mi North 4.6 mph - N/A   Overcast
4:53 PM 60.1 °F 55.0 °F 83% 30.03 in 9.0 mi NNW 3.5 mph - N/A   Overcast
5:38 PM 60.8 °F 55.4 °F 82% 30.00 in 8.0 mi North 3.5 mph - N/A   Overcast
5:53 PM 60.1 °F 55.0 °F 83% 30.03 in 9.0 mi NW 3.5 mph - N/A   Overcast
6:35 PM 59.0 °F 53.6 °F 82% 30.02 in 9.0 mi Calm Calm - N/A   Overcast
6:53 PM 59.0 °F 55.0 °F 87% 30.05 in 9.0 mi Calm Calm - N/A   Overcast
7:53 PM 57.9 °F 55.0 °F 90% 30.06 in 8.0 mi Calm Calm - N/A   Overcast
8:53 PM 55.0 °F 53.1 °F 93% 30.08 in 7.0 mi Calm Calm - N/A   Mostly Cloudy
9:07 PM 51.8 °F 51.8 °F 100% 30.06 in 2.5 mi Calm Calm - N/A   Scattered Clouds
9:14 PM 51.8 °F 51.8 °F 100% 30.06 in 1.8 mi Calm Calm - N/A   Mostly Cloudy
9:17 PM 51.8 °F 51.8 °F 100% 30.06 in 3.0 mi Calm Calm - N/A   Mostly Cloudy
9:53 PM 54.0 °F 53.1 °F 97% 30.09 in 4.0 mi Calm Calm - N/A   Overcast
10:53 PM 53.1 °F 52.0 °F 96% 30.09 in 4.0 mi NNE 3.5 mph - N/A   Overcast
11:53 PM 52.0 °F 50.0 °F 93% 30.09 in 5.0 mi Calm Calm - N/A   Mostly Cloudy